Location: Montreal
(45.5087°N, 73.5540°W)
Time: 18:44:00
(UTC-04:00)

Envisat - Pass Details

Date: 02 February 2023
Orbit: 763 x 765 km, 98.2° (Epoch: 20 March)

Event Time Altitude Azimuth Distance (km) Brightness Sun altitude
Rises 04:40:31 0° 8° (N) 3,243 6.4 -27.1°
Reaches altitude 10° 04:42:54 10° 2° (N) 2,312 5.5 -26.7°
Enters shadow 04:44:43 22° 353° (N) 1,652 4.6 -26.4°
